Home > Weather > Madaba > Past weeks

Flag for Jordan Weather for the Past 2 Weeks in Madaba, Jordan

Now
55 °F

Partly sunny.


Feels Like: 52 °F
Forecast: 44 / 59 °F
Wind: 12 mph from Northwest

Location: Queen Alia Airport

Current Time: Feb 11, 2016 at 5:15:22 PM

Latest Report: Feb 11, 2016 at 4:00 PM


Visibility: 4 mi

Pressure: 30.24 "Hg (27.52 "Hg at 788m altitude)

Humidity: 59%

Dew point: 41 °F

Location of MadabaLocation

Historic Weather in Madaba — Graph

°F

Madaba Temperature Yesterday

Maximum temperature yesterday: 55 °F (at 2:00 PM)
Minimum temperature yesterday: 41 °F (at 12:00 AM)
Average temperature yesterday: 46 °F

High & Low Weather Summary for the Past Weeks

 TemperatureHumidityPressure
High73 °F (Feb 5, 2:00 PM)100% (Feb 3, 5:00 AM)30.45 "Hg (Feb 3, 5:00 AM)
Low28 °F (Jan 28, 7:00 AM)17% (Feb 5, 2:00 PM)29.92 "Hg (Feb 6, 3:00 PM)
Average46 °F66%30.20 "Hg
* Reported Jan 27 4:00 PM — Feb 11 4:00 PM, Madaba, Weather by CustomWeather, © 2016

Note: Actual official high and low records may vary slightly from our data, if they occured in-between our weather recording intervals... More about our weather records

Advertising

Madaba Weather History for the Previous 24 Hours

 ConditionsComfort  
Time TempWeatherWind HumidityBarometerVisibility
4:00 PM
Thu, Feb 11
55 °FPartly sunny.12 mph59%30.24 "Hg4 mi
3:00 PM55 °FPartly sunny.12 mph55%30.24 "Hg4 mi
2:00 PM55 °FPartly sunny.10 mph55%30.24 "Hg4 mi
1:00 PM55 °FPartly sunny.7 mph59%30.24 "Hg4 mi
12:00 PM54 °FPartly sunny.7 mph72%30.27 "Hg4 mi
11:00 AM52 °FPartly sunny.6 mph77%30.27 "Hg2 mi
10:00 AM48 °FFog.No wind87%30.27 "Hg2 mi
9:00 AM45 °FFog.No wind93%30.24 "Hg3 mi
8:00 AM43 °FFog.No wind87%30.24 "Hg2 mi
7:00 AM41 °FFog.No wind93%30.24 "Hg1 mi
6:00 AM39 °FFog.No wind100%30.21 "Hg1 mi
5:00 AM39 °FFog.No wind93%30.18 "Hg1 mi
3:00 AM39 °FFog.No wind87%30.18 "Hg2 mi
2:00 AM39 °FFog.No wind87%30.18 "Hg2 mi
1:00 AM41 °FPassing clouds.No wind93%30.18 "Hg4 mi
12:00 AM43 °FPassing clouds.5 mph93%30.18 "Hg4 mi
11:00 PM
Wed, Feb 10
45 °FPassing clouds.5 mph87%30.18 "Hg4 mi
10:00 PM45 °FPassing clouds.No wind87%30.18 "Hg4 mi
9:00 PM45 °FClear.7 mph76%30.18 "Hg4 mi
8:00 PM46 °FPassing clouds.7 mph71%30.15 "Hg4 mi
7:00 PM48 °FPassing clouds.12 mph71%30.12 "Hg4 mi
6:00 PM50 °FPassing clouds.12 mph62%30.12 "Hg4 mi
5:00 PM52 °FScattered clouds.15 mph54%30.09 "Hg4 mi
Weather by CustomWeather, © 2016

See weather overviewHow to use our weather pages